Regional Weather Roundup
Issued by NWS Charleston, WV

Home | Current Version | Previous Version | Text Only | Print | Product List | Glossary On
Versions: 1 2 3 4 5 6 7 8 9 10 11 12 13 14 15 16 17 18 19 20 21 22 23 24 25 26
000
ASUS41 KRLX 271410
RWRRLX
West Virginia Regional Weather Roundup
National Weather Service Charleston WV
1000 AM EDT FRI MAY 27 2016

Note: "fair" indicates few or no clouds below 12,000 feet with no
significant weather and/or obstructions to visibility.

WVZ003-271500-
Northern Panhandle of West Virginia

CITY           SKY/WX    TMP DP  RH WIND       PRES   REMARKS
WHEELING         N/A     75  63  66 SW7       30.07F
$$

WVZ009-271500-
Northwest West Virginia

CITY           SKY/WX    TMP DP  RH WIND       PRES   REMARKS
PARKERSBURG      N/A     75  64  68 S7        30.10F
$$

WVZ006-271500-
Western West Virginia

CITY           SKY/WX    TMP DP  RH WIND       PRES   REMARKS
HUNTINGTON     PTSUNNY   72  67  84 SE5       30.08S
$$

WVZ015-271500-
West Central West Virginia

CITY           SKY/WX    TMP DP  RH WIND       PRES   REMARKS
CHARLESTON     PTSUNNY   76  63  64 CALM      30.10S
$$

WVZ022-031-271500-
North Central West Virginia

CITY           SKY/WX    TMP DP  RH WIND       PRES   REMARKS
CLARKSBURG       N/A     76  64  66 SW8       30.11S
MORGANTOWN       N/A     77  61  57 SW7       30.11F
$$

WVZ025-035-042-045-271500-
Southern West Virginia

CITY           SKY/WX    TMP DP  RH WIND       PRES   REMARKS
BECKLEY          N/A     74  58  57 VRB5      30.19R
LOGAN            N/A     75  63  64 CALM      30.13S
BLUEFIELD        N/A     72  56  57 SW3       30.22R
LEWISBURG        N/A     67  61  79 S3        30.19S
$$

WVZ047-271500-
Northern Mountains of West Virginia

CITY           SKY/WX    TMP DP  RH WIND       PRES   REMARKS
ELKINS           N/A     74  59  59 VRB3      30.15F
$$

WVZ052-271500-
Eastern Panhandle of West Virginia

CITY           SKY/WX    TMP DP  RH WIND       PRES   REMARKS
MARTINSBURG      N/A     78  66  66 VRB3      30.08F
PETERSBURG       N/A     76  67  71 CALM      30.12S
$$




USA.gov is the U.S. government's official web portal to all federal, state and local government web resources and services.